Find Starlink 34840

NORAD ID: 66406 Int'l Des: 2025-257 Owner: SPXS Country: US Constellation: starlink operational
LEOCIRCULAR

当前视图

正在加载3D地球...

关于 Starlink 34840

正在加载描述...

即将过境

Passes for default location (London). Set your location on the main map for personalized predictions.

高度历史

Loading altitude history...

两行轨道根数

1 66406U 25257AC 26146.19321655 .00030555 00000-0 91142-3 0 9992
2 66406 53.1596 216.0202 0001801 111.9314 248.1881 15.34411579 31552
Epoch: May 26, 2026 • Age: 10 hours

当前状态

高度 463.3 km
速度 7.64 km/s
星下点 24.19°N, 137.32°E
发射日期 Nov 9, 2025
运行时间 0.5 years
类型 internet

技术详情

分类 Payload
质量 575.00 kg
干质量 530.00 kg
总质量 575.00 kg
长度 0.30 m
直径 4.10 m
跨度 29.00 m
形状 Box + pan
制造商 SPXS
平台类型 Starlink V2MO
阶段状态 In Orbit
所有者/国家 SPXS/US

Most Searched